Date,TemperatureHighF,TemperatureAvgF,TemperatureLowF,DewpointHighF,DewpointAvgF,DewpointLowF,HumidityHigh,HumidityAvg,HumidityLow,PressureMaxIn,PressureMinIn,WindSpeedMaxMPH,WindSpeedAvgMPH,GustSpeedMaxMPH,PrecipitationSumIn
2013-1-1,43.3,39.2,35.1,16.3,13.0,8.1,41,34,29,29.32,29.21,14,1,14,0.00
2013-1-2,36.3,32.6,27.9,14.9,6.0,-0.3,41,32,25,29.50,29.29,10,1,10,0.00
2013-1-3,36.7,29.7,20.7,7.5,3.9,0.0,43,33,29,29.50,29.41,8,0,8,0.00
2013-1-4,39.4,34.7,30.9,9.5,6.4,3.8,31,30,26,29.50,29.41,15,3,15,0.00
2013-1-5,43.0,36.3,31.1,10.6,7.5,4.0,34,30,25,29.65,29.44,13,1,13,0.00
2013-1-6,47.3,40.2,32.5,17.5,13.3,10.0,42,33,27,29.47,29.32,11,1,11,0.00
2013-1-7,42.1,37.1,26.6,16.6,10.4,5.5,43,33,29,29.74,29.44,12,1,12,0.00
2013-1-8,51.3,36.4,25.2,21.1,13.4,6.3,51,39,26,29.68,29.59,9,0,9,0.00
2013-1-9,54.3,43.9,28.4,31.0,20.2,11.8,51,39,26,29.71,29.50,12,1,12,0.00
2013-1-10,52.9,45.7,38.5,17.7,14.0,10.4,32,27,21,29.88,29.71,11,1,11,0.00
2013-1-11,51.6,44.2,39.0,34.4,20.9,11.6,69,41,27,29.74,29.38,8,1,8,0.00
2013-1-12,54.1,48.0,43.3,44.3,38.6,34.2,76,70,61,29.47,29.38,2,0,2,0.00
2013-1-13,61.9,52.6,44.6,49.7,41.2,36.5,77,66,48,29.38,29.23,3,0,3,0.00
2013-1-14,61.2,51.8,41.2,51.3,32.0,18.9,71,48,30,29.62,29.23,10,1,10,0.00
2013-1-15,42.6,39.5,36.3,27.7,23.7,17.3,69,54,39,29.62,29.44,3,0,3,0.00
2013-1-16,42.4,38.6,35.4,34.4,30.0,26.3,73,71,68,29.44,29.12,6,0,6,0.00
2013-1-17,43.2,40.4,36.7,34.2,17.4,10.9,73,40,29,29.41,29.26,4,0,7,0.00
2013-1-18,36.7,33.0,29.7,15.2,5.2,-1.8,41,31,25,29.77,29.35,13,2,13,0.00
2013-1-19,54.9,41.7,29.7,18.2,11.0,4.1,40,29,20,29.65,29.21,9,2,9,0.00
2013-1-20,53.4,44.2,34.9,19.0,7.7,-2.6,31,22,18,29.38,29.12,24,4,24,0.00
2013-1-21,42.6,33.5,25.7,6.5,0.3,-7.1,30,24,20,29.38,29.09,19,1,19,0.00
2013-1-22,25.5,18.1,14.4,-6.2,-13.4,-15.8,26,23,22,29.56,29.23,17,3,17,0.00
2013-1-23,25.2,19.5,13.3,-8.2,-12.4,-16.8,25,23,21,29.59,29.38,10,1,10,0.00
2013-1-24,25.5,20.3,15.6,5.0,-3.8,-13.1,55,35,24,29.80,29.35,13,1,13,0.00
2013-1-25,25.2,20.4,15.1,4.3,-3.6,-13.0,46,34,25,29.80,29.32,8,1,8,0.00
2013-1-26,35.2,27.3,20.3,14.7,9.1,2.5,51,46,32,29.71,29.35,8,0,8,0.00
2013-1-27,36.3,28.9,21.4,9.2,3.9,-0.3,41,34,30,29.85,29.71,6,0,6,0.00
2013-1-28,51.6,40.1,29.8,35.7,23.2,9.0,59,51,40,29.74,29.32,9,1,9,0.00
2013-1-29,68.9,58.9,51.1,44.8,37.1,31.6,61,45,32,29.41,29.23,8,2,8,0.00
2013-1-30,70.0,59.2,52.2,49.9,44.5,33.3,74,59,40,29.23,28.53,23,1,23,0.00
2013-1-31,58.3,39.7,30.2,50.9,13.0,-1.4,77,35,24,29.18,28.50,26,6,26,0.00
2013-2-1,31.3,23.9,16.9,17.5,-3.5,-12.1,67,30,24,29.65,29.09,20,3,20,0.00
2013-2-2,32.2,22.7,13.1,8.8,-1.1,-11.6,43,35,28,29.65,29.26,8,1,8,0.00
2013-2-3,37.6,30.4,25.2,20.3,11.4,0.2,52,45,31,29.29,29.09,15,1,15,0.00
2013-2-4,40.6,31.6,23.9,8.3,3.2,-1.7,32,29,23,29.35,29.15,15,2,15,0.00
2013-2-5,39.9,35.2,32.5,22.9,17.1,6.0,60,48,31,29.21,29.12,3,0,3,0.00
2013-2-6,41.7,36.6,28.4,27.1,15.4,7.7,65,43,30,29.62,29.21,13,1,13,0.00
2013-2-7,41.4,33.9,26.1,15.4,10.4,6.6,47,38,29,29.68,29.47,8,1,8,0.00
2013-2-8,42.4,36.9,32.9,26.9,17.9,7.0,61,46,33,29.47,29.09,17,1,17,0.00
2013-2-9,38.5,32.6,27.0,7.8,3.2,-4.1,38,29,21,29.68,29.26,19,2,19,0.00
2013-2-10,45.1,33.6,19.6,12.2,4.2,-1.9,43,30,20,29.74,29.44,11,2,11,0.00
2013-2-11,64.4,49.8,37.4,38.7,23.5,5.8,63,39,17,29.47,28.97,25,2,25,0.00
2013-2-12,54.3,47.2,39.0,12.8,8.8,2.4,26,21,18,29.26,29.15,26,3,26,0.00
2013-2-13,45.3,37.0,31.8,23.8,14.1,3.2,60,40,23,29.23,28.97,4,0,4,0.00
2013-2-14,37.0,35.4,33.1,25.1,18.4,11.3,62,50,36,29.26,29.06,5,0,5,0.00
2013-2-15,55.0,41.6,34.3,25.8,18.9,12.9,57,41,26,29.32,29.21,10,1,10,0.00
2013-2-16,38.1,34.7,28.0,22.4,10.5,-2.8,57,37,25,29.29,29.15,8,0,8,0.00
2013-2-17,29.5,25.3,22.6,9.3,-2.4,-7.3,53,29,23,29.50,29.15,22,4,22,0.00
2013-2-18,43.3,30.8,18.7,5.4,-1.3,-9.0,32,25,20,29.65,29.38,10,1,10,0.00
2013-2-19,53.2,41.3,34.0,26.7,14.2,3.8,49,33,26,29.38,28.97,17,3,17,0.00
2013-2-20,36.0,30.6,23.4,6.6,-1.6,-8.1,30,24,22,29.47,29.15,23,4,23,0.00
2013-2-21,35.1,28.2,23.2,2.8,-1.8,-8.2,31,27,24,29.62,29.41,16,2,16,0.00
2013-2-22,34.0,31.4,27.5,16.4,8.9,0.8,48,39,31,29.65,29.44,7,1,7,0.00
2013-2-23,49.8,39.5,33.8,29.6,22.0,15.7,65,50,39,29.44,29.12,5,0,5,0.00
2013-2-24,47.5,39.9,31.3,32.3,17.0,3.5,72,42,25,29.41,29.09,15,2,15,0.00
2013-2-25,44.1,34.5,25.9,11.2,6.0,1.8,41,30,23,29.50,29.41,6,0,6,0.00
2013-2-26,42.8,35.4,27.1,37.8,20.1,4.4,84,55,35,29.47,28.94,4,0,4,0.00
2013-2-27,53.8,45.8,40.5,48.2,27.6,15.6,87,56,26,29.00,28.85,15,2,15,0.00
2013-2-28,43.5,42.3,40.5,19.9,18.9,16.6,40,39,36,28.94,28.94,8,0,8,0.00
2013-3-1,40.5,37.1,34.2,10.7,9.0,7.4,34,31,28,29.21,29.09,10,1,10,0.00
2013-3-2,37.0,32.7,29.8,8.2,5.7,2.8,34,31,29,29.21,29.12,12,1,12,0.00
2013-3-3,37.0,32.1,28.4,6.6,3.7,1.1,36,30,24,29.23,29.12,17,3,17,0.00
2013-3-4,39.9,31.7,26.1,4.4,1.1,-1.9,32,27,21,29.32,29.23,17,3,17,0.00
2013-3-5,49.6,40.8,32.9,15.7,5.4,0.9,44,23,19,29.35,29.09,5,1,6,0.00
2013-3-6,40.1,37.0,34.0,35.2,25.3,15.7,88,65,39,29.32,28.97,8,1,8,0.00
2013-3-7,44.4,39.9,36.3,16.1,13.6,10.4,42,34,28,29.47,29.32,12,1,12,0.00
2013-3-8,44.2,38.5,34.7,14.2,12.0,9.9,40,33,28,29.59,29.44,14,2,14,0.00
2013-3-9,54.1,41.7,32.9,15.5,10.8,3.3,41,29,18,29.68,29.53,8,1,8,0.00
2013-3-10,61.2,46.6,30.4,20.8,12.6,6.2,43,27,16,29.59,29.47,10,2,10,0.00
2013-3-11,60.4,51.3,43.2,34.8,20.4,5.7,46,31,19,29.47,29.15,10,2,10,0.00
2013-3-12,57.0,50.1,40.3,42.9,26.7,11.2,70,41,28,29.26,29.06,14,3,14,0.00
2013-3-13,40.5,40.0,38.8,11.5,10.6,9.3,30,29,29,29.26,29.23,14,3,14,0.00
2013-3-14,37.0,37.0,36.9,1.7,1.7,1.6,22,22,22,29.38,29.38,8,2,8,0.00
2013-3-15,59.0,44.5,31.8,16.8,8.2,0.6,30,23,18,29.38,29.06,14,3,14,0.00
2013-3-17,40.1,37.5,34.3,22.4,14.6,9.3,54,40,29,29.53,29.21,4,0,4,0.00
2013-3-18,37.6,35.3,33.3,25.6,18.0,9.5,67,50,31,29.56,29.18,5,0,5,0.00
2013-3-19,55.8,44.0,34.9,37.2,20.2,0.5,72,45,18,29.23,29.03,28,4,28,0.00
2013-3-20,51.8,41.6,33.6,15.2,2.7,-3.2,40,20,16,29.26,29.06,19,4,19,0.00
2013-3-21,36.3,31.2,27.0,13.7,0.5,-7.4,40,27,20,29.18,29.09,10,2,15,0.00
2013-3-22,44.4,34.9,25.3,5.9,0.8,-5.9,29,23,20,29.29,29.18,16,3,16,0.00
2013-3-23,50.9,39.3,25.7,11.3,6.0,-0.3,38,25,19,29.32,29.21,13,1,13,0.00
2013-3-24,43.7,35.6,30.2,20.5,10.4,3.3,55,36,23,29.29,28.91,6,0,6,0.00
2013-3-25,43.2,36.9,33.8,26.6,22.0,17.4,65,55,39,29.00,28.82,4,0,4,0.00
2013-3-26,36.3,35.9,35.4,23.8,21.6,19.1,60,56,50,29.03,29.00,5,0,5,0.00
2013-3-29,54.5,50.2,41.0,19.1,11.0,4.5,27,20,18,29.53,29.44,10,1,10,0.00
2013-3-30,57.6,45.1,32.5,16.6,10.3,4.5,40,25,17,29.53,29.38,9,0,9,0.00
2013-3-31,52.2,45.2,39.2,34.9,24.0,6.1,62,44,23,29.38,29.06,4,0,4,0.00
2013-4-1,60.8,47.0,37.6,34.8,22.1,1.2,65,40,21,29.29,29.06,17,2,20,0.00
2013-4-2,45.3,38.7,32.0,5.7,1.4,-4.7,25,20,17,29.47,29.29,14,2,14,0.00
2013-4-3,47.5,37.4,28.6,6.2,0.4,-5.9,25,21,17,29.68,29.47,17,1,17,0.00
2013-4-4,52.5,38.1,23.0,10.9,2.7,-6.4,33,23,16,29.68,29.35,8,1,8,0.00
2013-4-5,61.7,49.0,36.7,27.3,15.4,3.8,52,29,16,29.35,29.12,13,1,13,0.00
2013-4-6,55.8,45.4,34.9,12.5,6.8,-1.4,30,20,16,29.62,29.35,8,1,8,0.00
2013-4-7,70.3,57.1,41.4,26.6,18.6,6.4,31,23,17,29.50,29.23,10,3,10,0.00
2013-4-8,79.0,67.5,56.1,32.5,26.5,22.0,35,22,15,29.35,29.21,10,2,10,0.00
2013-4-9,83.1,72.5,62.2,35.9,31.2,26.3,29,22,16,29.38,29.21,10,2,10,0.00
2013-4-10,88.7,77.0,65.5,38.5,31.6,27.0,27,20,13,29.26,29.09,15,2,15,0.00
2013-4-11,86.4,74.5,61.3,38.7,34.5,30.9,43,24,18,29.18,29.00,8,1,8,0.00
2013-4-12,72.7,61.3,53.6,50.4,42.2,21.3,70,51,24,29.09,28.85,10,0,10,0.00
2013-4-13,68.2,57.6,49.6,25.0,18.8,11.3,30,22,15,29.26,29.09,17,2,17,0.00
2013-4-14,66.7,55.4,42.6,21.7,18.1,9.7,37,24,17,29.44,29.26,8,0,8,0.00
2013-4-15,61.7,58.0,55.6,36.7,28.0,21.7,45,32,25,29.56,29.41,8,2,8,0.00
2013-4-16,75.4,65.5,56.8,44.8,40.0,35.2,53,40,28,29.56,29.38,13,3,13,0.00
2013-4-17,72.5,66.0,59.5,59.3,45.9,39.4,72,50,35,29.50,29.41,10,0,13,0.00
2013-4-18,75.9,67.7,61.9,49.6,43.3,37.2,56,42,31,29.50,29.26,13,2,13,0.00
2013-4-19,75.7,66.1,53.1,54.6,41.6,20.0,71,41,27,29.26,28.88,15,3,15,0.00
2013-4-20,57.6,51.0,43.3,20.0,12.4,5.7,27,21,17,29.65,29.12,20,4,20,0.00
2013-4-21,54.5,44.8,36.5,13.6,8.0,4.2,29,22,18,29.88,29.65,6,0,6,0.00
2013-4-22,57.0,46.4,34.7,22.2,16.8,9.6,46,31,20,29.83,29.68,8,1,8,0.00
2013-4-23,59.2,48.8,38.5,27.8,23.0,17.1,44,36,28,29.68,29.38,6,0,6,0.00
2013-4-24,46.6,44.7,43.5,26.5,26.1,25.6,50,48,44,29.38,29.35,0,0,0,0.00
2013-5-1,69.4,60.7,52.5,41.3,26.6,15.8,56,30,15,29.71,29.59,6,0,6,0.08
2013-5-2,68.4,56.6,42.4,34.9,26.9,19.5,52,33,22,29.71,29.59,6,0,6,0.00
2013-5-3,69.1,56.9,43.5,39.6,28.0,18.9,55,35,20,29.68,29.56,8,1,8,0.00
2013-5-4,68.0,56.3,44.1,33.9,26.0,20.4,50,32,20,29.62,29.47,6,0,6,0.00
2013-5-5,63.9,53.5,42.8,30.6,24.3,20.9,49,33,23,29.53,29.41,6,0,6,0.00
2013-5-6,60.1,53.7,45.0,53.2,38.9,23.4,78,58,38,29.47,29.35,3,0,3,0.12
2013-5-7,60.3,60.1,59.9,54.2,53.6,53.2,81,79,78,29.35,29.29,4,0,4,0.00
2013-5-16,78.4,73.8,67.6,43.4,36.9,32.4,37,26,21,29.26,29.15,14,4,14,0.00
2013-5-17,82.8,71.4,58.1,46.1,37.7,31.8,52,31,19,29.41,29.26,8,1,8,0.00
2013-6-1,90.1,84.5,75.6,47.5,43.5,40.5,37,25,19,29.26,29.21,8,2,8,0.00
2013-6-2,85.8,75.2,70.0,69.9,54.4,42.0,84,52,30,29.21,29.15,11,0,11,1.18
2013-6-3,79.7,72.8,64.8,66.7,50.9,36.5,83,51,24,29.29,29.18,9,0,9,0.20
2013-6-4,76.5,65.6,55.0,36.6,30.5,24.1,42,28,18,29.44,29.29,7,0,7,0.00
2013-6-5,79.7,67.9,55.0,42.9,37.9,34.1,54,35,21,29.47,29.32,8,0,8,0.00
2013-6-6,70.5,66.5,63.7,56.8,45.0,32.8,71,48,31,29.35,29.18,7,0,7,0.59
2013-6-7,66.0,65.9,65.8,56.7,56.5,56.2,72,71,71,29.18,29.12,0,0,0,0.00
2013-6-13,73.9,71.6,66.9,59.0,50.8,38.4,61,49,35,29.12,28.94,5,0,5,0.51
2013-6-14,78.4,69.9,62.6,38.6,34.6,29.6,36,28,18,29.32,28.97,9,2,9,0.00
2013-6-15,77.4,67.6,59.4,46.8,38.5,32.9,48,36,20,29.41,29.29,8,1,8,0.00
2013-6-17,87.1,82.4,74.1,53.5,45.9,40.2,43,29,20,29.26,29.21,8,0,8,0.00
2013-6-18,74.1,71.4,69.4,54.6,53.2,50.1,56,53,43,29.23,29.18,4,0,4,0.00
2013-6-27,84.9,79.7,73.8,59.8,49.7,46.3,50,35,29,29.00,28.94,13,2,13,0.00
2013-6-28,90.1,78.6,71.6,55.5,50.4,41.8,51,39,19,28.97,28.82,12,2,12,0.00
2013-6-30,88.9,82.9,75.4,57.9,53.7,50.3,46,37,29,29.15,29.03,6,1,6,0.00
2013-7-1,85.1,78.2,72.7,60.6,54.6,50.1,59,45,32,29.26,29.12,8,1,8,0.00
2013-7-2,87.8,78.5,73.4,66.2,58.2,51.1,67,52,30,29.38,29.26,10,1,10,0.00
2013-7-7,91.9,79.8,72.5,59.4,55.6,41.6,63,46,21,29.38,29.29,17,1,17,0.00
2013-7-8,88.7,78.7,69.8,63.3,52.0,39.9,69,44,19,29.41,29.35,10,1,10,0.00
2013-7-9,87.1,78.7,72.9,57.8,53.4,49.0,54,43,29,29.41,29.29,8,1,8,0.00
2013-7-10,87.4,78.9,74.3,63.2,56.3,46.6,62,47,29,29.32,29.15,10,1,10,0.00
2013-7-11,84.7,78.1,73.0,58.2,50.2,42.1,58,39,23,29.23,29.18,8,0,8,0.00
2013-7-15,92.8,87.4,78.6,55.5,49.0,41.4,45,28,18,29.59,29.50,6,0,6,0.00
2013-7-16,92.1,82.9,73.0,61.5,53.2,43.1,59,38,19,29.59,29.47,7,0,7,0.00
2013-7-17,93.2,84.4,75.4,61.8,52.0,42.7,58,35,18,29.56,29.41,8,0,8,0.00
2013-7-18,95.2,85.5,75.7,63.5,55.5,47.2,60,38,20,29.44,29.32,6,0,6,0.00
2013-7-19,81.7,79.1,77.2,63.3,61.4,60.0,59,55,50,29.32,29.29,6,0,6,0.00
2013-7-20,94.5,88.5,79.0,51.9,47.2,43.0,38,25,19,29.21,29.09,10,2,10,0.00
2013-7-21,90.3,79.6,72.7,60.5,53.6,43.3,61,42,21,29.26,29.21,7,0,7,0.00
2013-7-22,88.5,77.2,71.1,67.9,60.2,51.0,85,59,29,29.26,29.06,5,0,6,0.04
2013-7-23,86.5,78.5,72.9,76.0,56.3,41.0,88,53,21,29.09,28.97,11,1,11,0.04
2013-7-24,77.4,73.8,70.2,49.2,45.8,43.0,47,37,30,29.03,29.00,8,0,8,0.00
2013-8-2,85.1,79.9,70.2,41.7,37.0,32.5,35,22,16,29.26,29.21,12,2,12,0.00
2013-8-3,76.3,70.1,67.5,55.8,46.2,40.3,50,43,34,29.29,29.23,5,0,5,0.00
2013-8-9,87.4,82.3,76.3,62.8,54.9,50.6,51,40,31,29.26,29.18,9,2,9,0.00
2013-8-10,82.2,76.1,71.4,59.1,49.7,37.0,62,42,21,29.38,29.26,4,0,8,0.00
2013-8-11,84.6,76.5,69.8,59.2,52.4,47.0,63,45,29,29.41,29.29,7,0,7,0.00
2013-8-12,86.5,77.4,69.3,63.5,50.8,39.0,69,44,19,29.32,29.23,8,1,8,0.00
2013-8-14,72.5,68.5,61.5,35.7,31.3,28.4,37,25,22,29.41,29.29,11,2,11,0.00
2013-8-18,72.5,68.2,63.9,50.2,46.0,42.4,58,46,35,29.53,29.44,4,0,4,0.00
2013-8-19,63.9,62.5,61.5,51.6,50.2,48.8,68,64,58,29.47,29.38,0,0,0,0.00
2013-8-20,84.7,73.6,63.9,61.5,49.3,39.6,70,46,21,29.47,29.38,7,0,8,0.00
2013-8-21,89.8,76.8,66.2,58.3,51.7,47.6,64,43,25,29.47,29.35,8,0,8,0.00
2013-8-22,86.5,80.1,72.7,48.6,45.4,41.6,42,30,22,29.26,29.23,9,1,9,0.00
2013-8-23,74.3,70.1,63.0,60.3,52.2,43.2,70,54,35,29.41,29.23,4,0,4,0.00
2013-8-24,66.6,61.7,58.6,55.7,50.5,47.9,69,67,60,29.56,29.41,4,0,4,0.00
2013-8-28,77.4,76.3,75.4,63.4,62.8,61.9,66,63,61,29.12,29.09,4,0,4,0.00
2013-9-1,91.4,82.1,74.5,53.5,49.5,45.1,48,33,21,29.09,29.03,6,1,6,0.00
2013-9-2,90.7,79.4,70.7,64.8,53.0,41.3,68,44,19,29.09,29.00,9,1,9,0.00
2013-9-3,80.8,74.8,70.9,55.1,45.4,35.1,50,36,20,29.18,29.03,10,2,10,0.00
2013-9-4,76.3,69.4,65.1,42.6,38.6,33.4,43,33,21,29.35,29.29,4,0,4,0.00
2013-9-5,80.2,69.5,60.1,45.9,38.1,28.5,55,34,20,29.44,29.32,10,1,10,0.00
2013-9-6,72.5,62.7,52.3,37.2,30.2,23.1,50,31,16,29.68,29.44,6,0,6,0.00
2013-9-7,79.5,65.2,51.6,43.4,35.4,30.0,55,36,17,29.62,29.26,9,0,9,0.00
2013-9-8,85.8,73.6,63.7,49.1,44.4,40.0,53,37,21,29.41,29.23,9,1,9,0.00
2013-9-9,80.8,70.4,62.1,51.1,40.8,31.7,52,35,22,29.62,29.41,6,0,6,0.00
2013-9-10,92.7,78.8,67.6,59.2,52.7,44.1,66,43,20,29.59,29.38,8,1,8,0.00
2013-9-11,76.6,75.6,75.2,58.3,57.1,56.0,55,53,49,29.59,29.47,4,0,4,0.00
2013-9-15,76.6,71.0,64.2,41.9,36.0,31.9,44,29,21,30.21,29.50,8,1,8,0.00
2013-9-16,70.2,65.0,60.8,50.9,42.9,35.9,66,46,29,29.94,29.50,8,1,8,0.00
2013-9-18,70.2,61.9,54.9,33.0,30.2,27.6,43,31,22,30.24,29.74,5,0,5,0.00
2013-9-19,77.2,62.5,49.6,42.8,37.5,32.7,60,41,23,30.77,29.41,5,2,5,0.00
2013-9-20,81.1,67.5,56.1,54.7,46.0,42.0,66,48,27,29.97,29.26,4,0,4,0.00
2013-9-21,73.2,66.5,62.2,56.7,52.7,47.8,73,62,42,30.03,29.09,0,0,0,0.00
2013-9-22,70.5,62.0,55.0,52.9,39.4,25.8,73,48,22,30.24,29.32,10,1,10,0.00
2013-9-23,62.8,57.1,49.1,34.9,28.3,24.5,48,34,24,31.01,29.91,8,0,8,0.00
2013-9-24,69.1,55.3,41.7,40.2,31.2,27.2,61,42,23,31.01,30.33,10,0,10,0.00
2013-9-25,71.2,57.2,45.5,45.3,32.9,28.4,65,43,22,31.01,30.15,0,0,0,0.00
2013-9-26,72.5,60.4,49.3,44.8,33.9,23.4,63,41,17,31.01,29.85,4,0,4,0.00
2013-9-30,73.4,66.7,58.3,38.2,34.2,30.4,47,31,22,30.65,29.83,4,2,4,0.00
2013-10-1,79.2,67.4,57.2,50.8,40.4,33.4,63,40,20,31.01,29.44,6,1,6,0.00
2013-10-2,81.0,69.5,59.4,48.2,40.8,34.3,56,38,20,30.92,29.38,4,1,4,0.00
2013-10-3,83.3,69.9,59.4,50.3,44.4,39.0,59,42,22,31.01,29.41,2,2,2,0.00
2013-10-4,68.2,64.2,61.9,55.2,49.9,48.1,66,60,52,30.92,29.56,2,2,2,0.00
2013-11-20,43.7,37.1,30.7,8.0,5.2,1.0,37,26,20,29.83,29.74,4,0,4,0.00
2013-11-21,51.3,39.3,28.8,25.2,18.1,7.2,50,42,34,29.83,29.65,0,0,0,0.00
2013-11-22,64.2,54.1,41.2,38.7,32.3,24.0,54,44,34,29.65,29.32,0,0,0,0.00
2013-11-23,53.1,49.2,45.9,27.5,24.7,19.9,42,38,35,29.44,29.38,0,0,0,0.00
2013-11-24,26.8,23.8,21.6,-7.7,-9.0,-10.5,25,23,21,29.80,29.71,6,0,6,0.00
2013-11-25,36.9,28.0,17.4,0.6,-5.0,-11.0,33,23,19,29.83,29.59,6,2,6,0.00
2013-11-26,37.0,35.2,33.6,32.4,16.3,-1.0,83,49,22,29.59,28.94,2,2,2,0.00
2013-11-27,40.3,35.4,27.0,36.4,18.1,-1.8,86,52,28,29.35,28.88,2,2,2,0.00
2013-11-28,34.7,30.3,25.7,5.0,2.0,-1.9,31,29,25,29.74,29.35,8,1,8,0.00
2013-11-29,31.1,28.3,26.8,7.9,5.2,2.6,41,37,31,29.80,29.71,0,0,0,0.00
2013-12-3,48.7,41.1,37.8,21.8,19.7,18.1,50,42,31,29.26,29.21,0,0,0,0.00
2013-12-4,54.9,43.5,33.6,31.9,25.3,18.5,59,49,36,29.35,29.26,0,0,0,0.00
2013-12-5,66.0,54.6,41.9,51.3,39.9,31.4,71,59,41,29.32,29.21,0,0,0,0.00
2013-12-6,60.1,58.9,56.3,50.7,48.6,46.1,71,68,65,29.21,29.18,0,0,0,0.00
2013-12-8,29.1,26.6,25.9,18.1,14.1,11.9,64,59,54,29.74,29.59,0,0,0,0.00
2013-12-9,40.5,34.3,29.1,30.2,24.3,18.5,71,66,60,29.59,29.32,0,0,0,0.00
2013-12-10,38.8,33.4,25.9,28.9,17.1,0.6,73,53,30,29.50,29.26,2,0,2,0.00
2013-12-11,28.2,27.1,25.7,2.0,1.1,-0.1,33,32,31,29.59,29.50,0,0,0,0.00
2013-12-12,29.1,25.2,21.4,0.4,-5.1,-9.4,32,26,21,29.71,29.50,4,0,4,0.00
2013-12-13,38.7,30.0,21.0,6.3,0.9,-9.3,35,28,24,29.56,29.47,8,0,8,0.00
2013-12-14,36.5,33.5,30.7,24.7,17.0,6.3,67,51,35,29.59,29.03,0,0,0,0.00
2013-12-15,43.0,36.1,32.5,32.5,17.3,6.6,73,49,31,29.23,28.94,0,0,0,0.00
2013-12-16,36.3,33.4,30.6,13.4,10.3,8.7,43,38,33,29.44,29.23,0,0,0,0.00
2013-12-17,43.5,35.9,31.1,19.6,16.0,11.2,52,44,36,29.41,29.21,0,0,0,0.00
2013-12-18,39.6,33.1,25.9,18.9,8.4,3.1,55,36,28,29.50,29.29,0,0,0,0.00
2013-12-19,54.9,40.6,24.8,17.8,11.6,5.1,43,31,20,29.47,29.32,0,0,0,0.00
2013-12-20,56.7,49.7,45.3,19.1,16.0,14.1,28,26,22,29.38,29.26,0,0,0,0.00
2013-12-23,58.6,48.3,36.9,49.8,27.2,9.8,73,46,31,29.53,29.21,0,0,0,0.00
2013-12-24,38.3,33.4,29.5,12.7,8.7,6.0,41,35,29,29.56,29.50,0,0,0,0.00
2013-12-25,28.9,27.1,24.8,-2.1,-3.4,-5.1,27,26,25,29.65,29.59,0,0,0,0.00
2013-12-26,44.6,32.8,22.8,12.6,2.2,-4.6,33,27,20,29.62,29.50,0,0,0,0.00
2013-12-27,47.3,34.4,25.0,9.9,2.8,-2.6,35,26,17,29.68,29.59,0,0,0,0.00
2013-12-28,57.0,43.3,31.1,18.1,8.2,3.3,31,24,17,29.62,29.38,0,0,0,0.04
2013-12-29,49.5,45.2,40.5,43.0,28.4,6.4,85,56,19,29.38,28.88,0,0,0,1.10
2013-12-30,46.9,39.4,30.6,24.7,16.3,8.9,48,39,33,29.44,29.12,0,0,0,0.00